Location: Newark
(54.1978°N, 18.3264°E)
Time: 19:23:02
(UTC+00:00)

OTV 5 (USA 277) - Pass Details

Date: 27 August 2019
Orbit: 310 x 324 km, 54.5° (Epoch: 17 October)

Event Time Altitude Azimuth Distance (km) Brightness Sun altitude
Rises 20:13:38 0° 258° (WSW) 2,040 ? -18.1°
Reaches altitude 10° 20:15:35 10° 258° (WSW) 1,210 ? -18.2°
Enters shadow 20:17:32 44° 256° (WSW) 449 ? -18.4°
